Flag for Netherlands Weather past 2 weeks in Nijmegen, Netherlands

Now
64 °F

Passing clouds.


Feels Like: 64 °F
Forecast: 46 / 64 °F
Wind: 6 mph from West

Location: Volkel

Current Time: Sep 2, 2015 at 3:53:51 PM

Latest Report: Sep 2, 2015 at 3:25 PM


Visibility: N/A

Pressure: 30.01 "Hg

Humidity: 68%

Dew point: 54 °F

Location of NijmegenLocation

Historic Weather in Nijmegen — Graph

°F

Nijmegen temperature yesterday

Maximum temperature yesterday: 66 °F (at 12:00 AM)
Minimum temperature yesterday: 52 °F (at 11:25 PM)
Average temperature yesterday: 62 °F

Past Weeks' High & Low Weather Summary

 TemperatureHumidityPressure
High86 °F (Aug 31, 3:25 PM)100% (Aug 20, 3:25 AM)30.24 "Hg (Aug 20, 3:25 AM)
Low46 °F (Sep 2, 5:01 AM)32% (Aug 23, 1:55 PM)29.47 "Hg (Aug 24, 3:55 PM)
Average65 °F76%29.95 "Hg
* Reported Aug 18 2:01 PM — Sep 2 2:25 PM, Nijmegen, Weather by CustomWeather, © 2015

Note: Actual official high and low records may vary slightly from our data, if they occured in-between our weather recording intervals... More about our weather records

Advertising

Nijmegen weather history for previous 24 hours

 ConditionsComfort  
Time TempWeatherWind HumidityBarometerVisibility
2:25 PM
Wed, Sep 2
63 °FPassing clouds.7 mph68%30.01 "HgN/A
1:55 PM61 °FOvercast.6 mph77%30.01 "HgN/A
1:25 PM59 °FOvercast.7 mph77%30.01 "HgN/A
12:55 PM57 °FOvercast.7 mph82%30.01 "HgN/A
12:25 PM57 °FMostly cloudy.9 mph88%30.01 "HgN/A
11:55 AM57 °FDrizzle. Broken clouds.3 mph88%30.01 "HgN/A
11:25 AM55 °FRain showers. Partly sunny.3 mph94%30.04 "Hg6 mi
10:55 AM55 °FDrizzle. Broken clouds.2 mph94%30.04 "Hg4 mi
10:25 AM55 °FRain showers. Broken clouds.5 mph94%30.04 "Hg4 mi
9:55 AM55 °FDrizzle. Mostly cloudy.7 mph94%30.04 "Hg6 mi
9:25 AM55 °FDrizzle. Mostly cloudy.7 mph88%30.01 "HgN/A
8:55 AM54 °FMore clouds than sun.5 mph94%30.04 "HgN/A
8:25 AM54 °FMostly cloudy.5 mph94%30.01 "HgN/A
7:59 AM52 °FOvercast.5 mph94%30.01 "HgN/A
7:55 AM50 °FMostly cloudy.3 mph100%30.01 "HgN/A
7:25 AM48 °FCool.3 mph94%30.01 "HgN/A
6:55 AM48 °FFog.6 mph94%30.04 "Hg6 mi
6:25 AM46 °FCool.7 mph100%30.04 "HgN/A
5:55 AM46 °FCool.6 mph100%30.04 "HgN/A
5:25 AM46 °FCool.5 mph93%30.04 "HgN/A
5:01 AM46 °FFog.3 mph100%30.04 "Hg4 mi
4:25 AM48 °FCool.5 mph100%30.04 "HgN/A
3:55 AM48 °FFog.6 mph100%30.04 "Hg6 mi
3:25 AM48 °FFog.6 mph100%30.04 "Hg6 mi
2:55 AM48 °FCool.5 mph94%30.04 "HgN/A
2:25 AM50 °FCool.5 mph100%30.04 "HgN/A
1:55 AM48 °FCool.5 mph100%30.04 "HgN/A
1:25 AM50 °FCool.5 mph100%30.04 "HgN/A
12:55 AM50 °FCool.3 mph100%30.04 "HgN/A
11:25 PM
Tue, Sep 1
52 °FCool.5 mph94%30.04 "HgN/A
10:55 PM55 °FCool.5 mph88%30.04 "HgN/A
10:25 PM55 °FClear.5 mph82%30.04 "HgN/A
9:55 PM57 °FCool.5 mph77%30.04 "HgN/A
9:25 PM57 °FCool.6 mph77%30.04 "HgN/A
8:55 PM57 °FCool.5 mph77%30.01 "HgN/A
8:25 PM59 °FScattered clouds.5 mph72%30.01 "HgN/A
7:55 PM61 °FCool.7 mph68%30.01 "HgN/A
7:25 PM63 °FPassing clouds.7 mph68%29.98 "HgN/A
6:55 PM64 °FPassing clouds.8 mph64%29.98 "HgN/A
6:25 PM64 °FMild.10 mph64%29.98 "HgN/A
5:55 PM66 °FBroken clouds.9 mph64%29.98 "HgN/A
5:25 PM64 °FBroken clouds.8 mph64%29.98 "HgN/A
4:55 PM66 °FBroken clouds.8 mph68%29.95 "HgN/A
4:25 PM64 °FBroken clouds.6 mph73%29.95 "HgN/A
3:55 PM66 °FBroken clouds.6 mph73%29.95 "HgN/A
3:25 PM64 °FOvercast.7 mph78%29.95 "HgN/A
Weather by CustomWeather, © 2015

See weather overviewHow to use our weather pages